User: anonymous   Login
Location: Unspecified
(0.0000°N, 0.0000°E)
Time: 07:30:24
(UTC+00:00)
Language:

N. Korean satellite - Orbit

View from above orbital plane
View from above orbital plane
View from above satellite
View from above satellite

Ground track
Ground track

The orbit data is extracted from the following two-line orbital elements,

1 39026U 12072A   17148.65823567 +.00001648 +00000-0 +66769-4 0  9992
2 39026 097.2242 167.1708 0038901 245.2012 114.5178 15.25382848246954
Epoch (UTC): 28 May 2017 15:47:51
Eccentricity: 0.0038901
inclination: 97.2242°
perigee height: 463 km
apogee height: 516 km
right ascension of ascending node: 167.1708°
argument of perigee: 245.2012°
revolutions per day: 15.25382848
mean anomaly at epoch: 114.5178°
orbit number at epoch: 24695

The dashed part of the orbit path shows where the satellite is in the earth's shadow,  

DLR